Time,TemperatureF,DewpointF,PressureIn,WindDirection,WindDirectionDegrees,WindSpeedMPH,WindSpeedGustMPH,Humidity,HourlyPrecipIn,Conditions,Clouds,dailyrainin,SoftwareType,DateUTC
2013-04-25 00:01:00,67.7,53.7,29.97,SSW,203,0.0,1.8,61,0.00,,,0.00,WUHU216HW,2013-04-25 04:01:00,
2013-04-25 00:06:00,67.5,54.0,29.97,SSE,158,0.0,1.8,62,0.00,,,0.00,WUHU216HW,2013-04-25 04:06:00,
2013-04-25 00:11:00,67.3,53.8,29.97,SW,225,0.7,1.1,62,0.00,,,0.00,WUHU216HW,2013-04-25 04:11:00,
2013-04-25 00:16:00,67.3,53.8,29.97,South,180,0.2,1.1,62,0.00,,,0.00,WUHU216HW,2013-04-25 04:16:00,
2013-04-25 00:21:00,67.3,54.3,29.96,SE,135,0.0,1.1,63,0.00,,,0.00,WUHU216HW,2013-04-25 04:21:00,
2013-04-25 00:26:00,67.1,54.1,29.97,SE,135,0.4,1.1,63,0.00,,,0.00,WUHU216HW,2013-04-25 04:26:00,
2013-04-25 00:31:00,67.0,54.4,29.97,SSW,203,0.2,0.9,64,0.00,,,0.00,WUHU216HW,2013-04-25 04:31:00,
2013-04-25 00:36:00,67.0,54.4,29.97,SSE,158,0.4,0.9,64,0.00,,,0.00,WUHU216HW,2013-04-25 04:36:00,
2013-04-25 00:41:00,66.8,54.2,29.97,SSE,158,0.0,1.1,64,0.00,,,0.00,WUHU216HW,2013-04-25 04:41:00,
2013-04-25 00:46:00,66.6,54.5,29.97,SE,135,0.4,1.1,65,0.00,,,0.00,WUHU216HW,2013-04-25 04:46:00,
2013-04-25 00:51:00,66.6,54.5,29.97,SW,225,0.0,1.1,65,0.00,,,0.00,WUHU216HW,2013-04-25 04:51:00,
2013-04-25 00:56:00,66.4,54.3,29.97,NNE,23,0.0,1.1,65,0.00,,,0.00,WUHU216HW,2013-04-25 04:56:00,
2013-04-25 01:01:00,66.2,54.1,29.97,SSE,158,0.0,1.1,65,0.00,,,0.00,WUHU216HW,2013-04-25 05:01:00,
2013-04-25 01:06:00,66.2,54.6,29.97,South,180,0.7,0.7,66,0.00,,,0.00,WUHU216HW,2013-04-25 05:06:00,
2013-04-25 01:11:00,66.1,54.4,29.97,SW,225,0.0,0.7,66,0.00,,,0.00,WUHU216HW,2013-04-25 05:11:00,
2013-04-25 01:16:00,65.9,55.0,29.97,SE,135,0.4,1.1,68,0.00,,,0.00,WUHU216HW,2013-04-25 05:16:00,
2013-04-25 01:21:00,65.9,54.5,29.97,WSW,248,0.4,1.1,67,0.00,,,0.00,WUHU216HW,2013-04-25 05:21:00,
2013-04-25 01:26:00,65.7,54.5,29.97,SE,135,0.0,1.3,67,0.00,,,0.00,WUHU216HW,2013-04-25 05:26:00,
2013-04-25 01:31:00,65.5,54.3,29.97,WSW,248,0.0,1.3,67,0.00,,,0.00,WUHU216HW,2013-04-25 05:31:00,
2013-04-25 01:36:00,65.5,54.6,29.97,SSE,158,0.0,1.1,68,0.00,,,0.00,WUHU216HW,2013-04-25 05:36:00,
2013-04-25 01:41:00,65.3,54.6,29.97,South,180,0.0,1.1,68,0.00,,,0.00,WUHU216HW,2013-04-25 05:41:00,
2013-04-25 01:46:00,65.3,54.6,29.97,SE,135,0.0,0.7,68,0.00,,,0.00,WUHU216HW,2013-04-25 05:46:00,
2013-04-25 01:51:00,65.2,54.7,29.97,SE,135,0.0,1.1,69,0.00,,,0.00,WUHU216HW,2013-04-25 05:51:00,
2013-04-25 01:56:00,65.2,54.7,29.97,West,270,0.4,1.1,69,0.00,,,0.00,WUHU216HW,2013-04-25 05:56:00,
2013-04-25 02:01:00,65.0,54.6,29.97,SW,225,0.0,0.4,69,0.00,,,0.00,WUHU216HW,2013-04-25 06:01:00,
2013-04-25 02:06:00,65.0,54.6,29.97,NW,315,0.0,0.4,69,0.00,,,0.00,WUHU216HW,2013-04-25 06:06:00,
2013-04-25 02:11:00,64.8,54.9,29.97,NW,315,0.0,0.0,70,0.00,,,0.00,WUHU216HW,2013-04-25 06:11:00,
2013-04-25 02:16:00,64.4,54.5,29.97,NW,315,0.0,0.0,70,0.00,,,0.00,WUHU216HW,2013-04-25 06:16:00,
2013-04-25 02:21:00,64.4,54.5,29.97,NW,315,0.0,0.0,70,0.00,,,0.00,WUHU216HW,2013-04-25 06:21:00,
2013-04-25 02:26:00,64.3,54.4,29.97,NW,315,0.0,0.0,70,0.00,,,0.00,WUHU216HW,2013-04-25 06:26:00,
2013-04-25 02:31:00,64.1,54.5,29.97,NW,315,0.0,0.0,71,0.00,,,0.00,WUHU216HW,2013-04-25 06:31:00,
2013-04-25 02:36:00,63.9,54.4,29.97,NW,315,0.0,0.0,71,0.00,,,0.00,WUHU216HW,2013-04-25 06:36:00,
2013-04-25 02:41:00,63.7,54.2,29.97,NW,315,0.0,0.0,71,0.00,,,0.00,WUHU216HW,2013-04-25 06:41:00,
2013-04-25 02:46:00,63.7,54.5,29.97,NW,315,0.0,0.0,72,0.00,,,0.00,WUHU216HW,2013-04-25 06:46:00,
2013-04-25 02:51:00,63.5,54.4,29.98,NW,315,0.0,0.0,72,0.00,,,0.00,WUHU216HW,2013-04-25 06:51:00,
2013-04-25 02:56:00,63.5,54.4,29.97,WNW,293,0.0,0.0,72,0.00,,,0.00,WUHU216HW,2013-04-25 06:56:00,
2013-04-25 03:01:00,63.4,54.5,29.98,WNW,293,0.0,0.0,73,0.00,,,0.00,WUHU216HW,2013-04-25 07:01:00,
2013-04-25 03:06:00,63.2,54.4,29.98,WNW,293,0.0,0.0,73,0.00,,,0.00,WUHU216HW,2013-04-25 07:06:00,
2013-04-25 03:11:00,63.2,54.4,29.98,WNW,293,0.0,0.0,73,0.00,,,0.00,WUHU216HW,2013-04-25 07:11:00,
2013-04-25 03:16:00,63.2,54.4,29.98,WNW,293,0.0,0.0,73,0.00,,,0.00,WUHU216HW,2013-04-25 07:16:00,
2013-04-25 03:21:00,63.2,54.7,29.98,WNW,293,0.0,0.0,74,0.00,,,0.00,WUHU216HW,2013-04-25 07:21:00,
2013-04-25 03:26:00,63.2,54.7,29.98,WNW,293,0.0,0.0,74,0.00,,,0.00,WUHU216HW,2013-04-25 07:26:00,
2013-04-25 03:31:00,63.2,54.7,29.99,WNW,293,0.0,0.0,74,0.00,,,0.00,WUHU216HW,2013-04-25 07:31:00,
2013-04-25 03:36:00,63.0,54.5,29.99,NNW,338,0.0,0.0,74,0.00,,,0.00,WUHU216HW,2013-04-25 07:36:00,
2013-04-25 03:41:00,63.0,54.9,30.00,North,0,0.0,0.0,75,0.00,,,0.00,WUHU216HW,2013-04-25 07:41:00,
2013-04-25 03:46:00,62.8,54.7,30.00,NE,45,0.0,1.3,75,0.00,,,0.00,WUHU216HW,2013-04-25 07:46:00,
2013-04-25 03:51:00,62.8,54.7,30.00,NW,315,0.0,1.3,75,0.00,,,0.00,WUHU216HW,2013-04-25 07:51:00,
2013-04-25 03:56:00,62.8,54.7,30.00,NW,315,0.4,0.9,75,0.00,,,0.00,WUHU216HW,2013-04-25 07:56:00,
2013-04-25 04:01:00,63.0,54.9,30.01,WNW,293,0.0,0.9,75,0.00,,,0.00,WUHU216HW,2013-04-25 08:01:00,
2013-04-25 04:06:00,63.0,54.9,30.02,NNW,338,1.1,3.1,75,0.00,,,0.00,WUHU216HW,2013-04-25 08:06:00,
2013-04-25 04:11:00,63.2,54.7,30.02,North,0,1.8,3.1,74,0.00,,,0.00,WUHU216HW,2013-04-25 08:11:00,
2013-04-25 04:16:00,63.4,54.9,30.02,North,0,0.9,2.2,74,0.00,,,0.00,WUHU216HW,2013-04-25 08:16:00,
2013-04-25 04:21:00,63.5,55.1,30.02,NNW,338,2.0,6.0,74,0.00,,,0.00,WUHU216HW,2013-04-25 08:21:00,
2013-04-25 04:26:00,63.5,54.7,30.03,NNW,338,0.4,6.0,73,0.00,,,0.00,WUHU216HW,2013-04-25 08:26:00,
2013-04-25 04:31:00,63.5,54.4,30.03,North,0,1.1,2.5,72,0.00,,,0.00,WUHU216HW,2013-04-25 08:31:00,
2013-04-25 04:36:00,63.4,53.8,30.03,NNW,338,0.4,2.5,71,0.00,,,0.00,WUHU216HW,2013-04-25 08:36:00,
2013-04-25 04:41:00,63.4,53.8,30.03,North,0,1.8,3.4,71,0.00,,,0.00,WUHU216HW,2013-04-25 08:41:00,
2013-04-25 04:46:00,63.2,53.3,30.04,NNW,338,1.1,3.4,70,0.00,,,0.00,WUHU216HW,2013-04-25 08:46:00,
2013-04-25 04:51:00,63.0,52.7,30.04,NNW,338,3.4,4.7,69,0.00,,,0.00,WUHU216HW,2013-04-25 08:51:00,
2013-04-25 04:56:00,63.0,52.7,30.04,NNW,338,1.1,4.7,69,0.00,,,0.00,WUHU216HW,2013-04-25 08:56:00,
2013-04-25 05:01:00,62.8,52.1,30.05,North,0,1.6,3.4,68,0.00,,,0.00,WUHU216HW,2013-04-25 09:01:00,
2013-04-25 05:06:00,62.8,51.7,30.05,NW,315,2.2,5.4,67,0.00,,,0.00,WUHU216HW,2013-04-25 09:06:00,
2013-04-25 05:11:00,62.6,51.1,30.05,North,0,1.1,5.4,66,0.00,,,0.00,WUHU216HW,2013-04-25 09:11:00,
2013-04-25 05:16:00,62.5,50.5,30.06,NNW,338,0.4,4.0,65,0.00,,,0.00,WUHU216HW,2013-04-25 09:16:00,
2013-04-25 05:21:00,62.3,50.3,30.06,North,0,2.7,4.0,65,0.00,,,0.00,WUHU216HW,2013-04-25 09:21:00,
2013-04-25 05:26:00,62.1,49.8,30.07,NW,315,0.7,4.0,64,0.00,,,0.00,WUHU216HW,2013-04-25 09:26:00,
2013-04-25 05:31:00,61.9,49.6,30.07,WSW,248,3.8,3.8,64,0.00,,,0.00,WUHU216HW,2013-04-25 09:31:00,
2013-04-25 05:36:00,61.7,49.1,30.07,NNW,338,0.4,4.3,63,0.00,,,0.00,WUHU216HW,2013-04-25 09:36:00,
2013-04-25 05:41:00,61.6,48.9,30.08,NNW,338,0.4,4.3,63,0.00,,,0.00,WUHU216HW,2013-04-25 09:41:00,
2013-04-25 05:46:00,61.6,48.4,30.08,NW,315,1.8,4.7,62,0.00,,,0.00,WUHU216HW,2013-04-25 09:46:00,
2013-04-25 05:51:00,61.2,48.2,30.09,NW,315,0.4,4.7,62,0.00,,,0.00,WUHU216HW,2013-04-25 09:51:00,
2013-04-25 05:56:00,61.0,48.0,30.10,North,0,1.1,3.6,62,0.00,,,0.00,WUHU216HW,2013-04-25 09:56:00,
2013-04-25 06:01:00,60.8,47.8,30.10,North,0,3.1,3.6,62,0.00,,,0.00,WUHU216HW,2013-04-25 10:01:00,
2013-04-25 06:06:00,60.8,47.8,30.10,WSW,248,1.8,3.4,62,0.00,,,0.00,WUHU216HW,2013-04-25 10:06:00,
2013-04-25 06:11:00,60.5,46.6,30.11,North,0,5.8,5.8,60,0.00,,,0.00,WUHU216HW,2013-04-25 10:11:00,
2013-04-25 06:16:00,60.1,46.3,30.11,NNW,338,4.3,5.8,60,0.00,,,0.00,WUHU216HW,2013-04-25 10:16:00,
2013-04-25 06:21:00,59.8,45.9,30.10,NNW,338,3.8,6.0,60,0.00,,,0.00,WUHU216HW,2013-04-25 10:21:00,
2013-04-25 06:26:00,59.6,45.7,30.11,NNW,338,2.2,6.0,60,0.00,,,0.00,WUHU216HW,2013-04-25 10:26:00,
2013-04-25 06:31:00,59.2,44.5,30.11,NNE,23,2.0,4.5,58,0.00,,,0.00,WUHU216HW,2013-04-25 10:31:00,
2013-04-25 06:36:00,58.7,43.9,30.11,NNW,338,2.9,6.5,58,0.00,,,0.00,WUHU216HW,2013-04-25 10:36:00,
2013-04-25 06:41:00,58.5,43.7,30.12,NNE,23,1.1,6.5,58,0.00,,,0.00,WUHU216HW,2013-04-25 10:41:00,
2013-04-25 06:46:00,58.3,43.6,30.11,NNE,23,1.8,4.5,58,0.00,,,0.00,WUHU216HW,2013-04-25 10:46:00,
2013-04-25 06:51:00,58.1,43.5,30.12,WSW,248,2.5,6.0,58,0.00,,,0.00,WUHU216HW,2013-04-25 10:51:00,
2013-04-25 06:56:00,58.0,43.3,30.12,North,0,1.1,6.0,58,0.00,,,0.00,WUHU216HW,2013-04-25 10:56:00,
2013-04-25 07:01:00,58.0,43.7,30.12,NNE,23,1.3,3.6,59,0.00,,,0.00,WUHU216HW,2013-04-25 11:01:00,
2013-04-25 07:06:00,57.8,43.6,30.13,North,0,1.1,3.6,59,0.00,,,0.00,WUHU216HW,2013-04-25 11:06:00,
2013-04-25 07:11:00,57.6,43.4,30.13,NNW,338,0.7,1.8,59,0.00,,,0.00,WUHU216HW,2013-04-25 11:11:00,
2013-04-25 07:16:00,57.6,43.4,30.14,NNE,23,1.1,2.5,59,0.00,,,0.00,WUHU216HW,2013-04-25 11:16:00,
2013-04-25 07:21:00,57.4,42.8,30.14,NNW,338,3.4,5.4,58,0.00,,,0.00,WUHU216HW,2013-04-25 11:21:00,
2013-04-25 07:26:00,57.4,43.3,30.15,NW,315,0.0,5.4,59,0.00,,,0.00,WUHU216HW,2013-04-25 11:26:00,
2013-04-25 07:31:00,57.4,42.8,30.15,WSW,248,1.8,3.4,58,0.00,,,0.00,WUHU216HW,2013-04-25 11:31:00,
2013-04-25 07:36:00,57.2,41.7,30.16,NNE,23,4.7,6.3,56,0.00,,,0.00,WUHU216HW,2013-04-25 11:36:00,
2013-04-25 07:41:00,56.9,41.8,30.16,North,0,1.8,6.3,57,0.00,,,0.00,WUHU216HW,2013-04-25 11:41:00,
2013-04-25 07:46:00,56.5,41.0,30.16,North,0,4.0,9.4,56,0.00,,,0.00,WUHU216HW,2013-04-25 11:46:00,
2013-04-25 07:51:00,56.5,41.0,30.16,North,0,1.8,9.4,56,0.00,,,0.00,WUHU216HW,2013-04-25 11:51:00,
2013-04-25 07:56:00,56.3,40.8,30.16,North,0,3.1,4.7,56,0.00,,,0.00,WUHU216HW,2013-04-25 11:56:00,
2013-04-25 08:01:00,56.2,40.6,30.16,NW,315,2.2,4.3,56,0.00,,,0.00,WUHU216HW,2013-04-25 12:01:00,
2013-04-25 08:06:00,56.0,40.4,30.17,NW,315,0.7,4.7,56,0.00,,,0.00,WUHU216HW,2013-04-25 12:06:00,
2013-04-25 08:11:00,56.2,40.6,30.17,NW,315,1.6,4.7,56,0.00,,,0.00,WUHU216HW,2013-04-25 12:11:00,
2013-04-25 08:16:00,56.0,40.0,30.18,NNW,338,6.9,6.9,55,0.00,,,0.00,WUHU216HW,2013-04-25 12:16:00,
2013-04-25 08:21:00,55.6,39.6,30.17,North,0,0.9,6.9,55,0.00,,,0.00,WUHU216HW,2013-04-25 12:21:00,
2013-04-25 08:26:00,55.4,39.4,30.17,North,0,2.7,6.9,55,0.00,,,0.00,WUHU216HW,2013-04-25 12:26:00,
2013-04-25 08:31:00,55.1,39.6,30.17,NNW,338,1.6,6.0,56,0.00,,,0.00,WUHU216HW,2013-04-25 12:31:00,
2013-04-25 08:36:00,55.1,39.6,30.17,NW,315,4.7,4.7,56,0.00,,,0.00,WUHU216HW,2013-04-25 12:36:00,
2013-04-25 08:41:00,55.3,39.7,30.17,North,0,2.2,4.7,56,0.00,,,0.00,WUHU216HW,2013-04-25 12:41:00,
2013-04-25 08:46:00,55.3,39.7,30.18,North,0,1.1,4.7,56,0.00,,,0.00,WUHU216HW,2013-04-25 12:46:00,
2013-04-25 08:51:00,55.1,39.1,30.18,North,0,2.9,4.7,55,0.00,,,0.00,WUHU216HW,2013-04-25 12:51:00,
2013-04-25 08:56:00,55.1,39.1,30.18,North,0,1.8,4.7,55,0.00,,,0.00,WUHU216HW,2013-04-25 12:56:00,
2013-04-25 09:01:00,55.1,39.6,30.18,NNW,338,2.7,3.8,56,0.00,,,0.00,WUHU216HW,2013-04-25 13:01:00,
2013-04-25 09:06:00,54.9,39.4,30.18,North,0,1.3,2.9,56,0.00,,,0.00,WUHU216HW,2013-04-25 13:06:00,
2013-04-25 09:11:00,55.1,39.6,30.18,North,0,1.8,3.1,56,0.00,,,0.00,WUHU216HW,2013-04-25 13:11:00,
2013-04-25 09:16:00,55.1,39.6,30.18,WNW,293,2.0,3.1,56,0.00,,,0.00,WUHU216HW,2013-04-25 13:16:00,
2013-04-25 09:21:00,54.9,39.4,30.18,North,0,1.1,2.9,56,0.00,,,0.00,WUHU216HW,2013-04-25 13:21:00,
2013-04-25 09:26:00,54.9,39.4,30.18,North,0,3.4,4.7,56,0.00,,,0.00,WUHU216HW,2013-04-25 13:26:00,
2013-04-25 09:31:00,55.1,39.6,30.18,North,0,2.9,4.7,56,0.00,,,0.00,WUHU216HW,2013-04-25 13:31:00,
2013-04-25 09:36:00,55.3,39.7,30.18,North,0,4.7,4.7,56,0.00,,,0.00,WUHU216HW,2013-04-25 13:36:00,
2013-04-25 09:41:00,55.1,39.1,30.18,NE,45,0.7,5.8,55,0.00,,,0.00,WUHU216HW,2013-04-25 13:41:00,
2013-04-25 09:46:00,55.3,39.7,30.18,North,0,1.1,5.8,56,0.00,,,0.00,WUHU216HW,2013-04-25 13:46:00,
2013-04-25 09:51:00,55.4,39.9,30.18,South,180,0.2,3.4,56,0.00,,,0.00,WUHU216HW,2013-04-25 13:51:00,
2013-04-25 09:56:00,55.8,40.2,30.19,North,0,3.4,3.8,56,0.00,,,0.00,WUHU216HW,2013-04-25 13:56:00,
2013-04-25 10:01:00,55.8,40.2,30.19,NW,315,1.3,3.8,56,0.00,,,0.00,WUHU216HW,2013-04-25 14:01:00,
2013-04-25 10:06:00,56.2,40.1,30.19,NNW,338,1.3,3.6,55,0.00,,,0.00,WUHU216HW,2013-04-25 14:06:00,
2013-04-25 10:11:00,56.3,40.8,30.19,ESE,113,2.9,5.4,56,0.00,,,0.00,WUHU216HW,2013-04-25 14:11:00,
2013-04-25 10:16:00,56.7,40.7,30.19,NNE,23,1.3,5.4,55,0.00,,,0.00,WUHU216HW,2013-04-25 14:16:00,
2013-04-25 10:21:00,56.7,40.7,30.19,North,0,0.9,5.1,55,0.00,,,0.00,WUHU216HW,2013-04-25 14:21:00,
2013-04-25 10:26:00,56.9,41.3,30.19,NNE,23,1.6,5.1,56,0.00,,,0.00,WUHU216HW,2013-04-25 14:26:00,
2013-04-25 10:31:00,56.7,41.1,30.19,North,0,2.9,2.9,56,0.00,,,0.00,WUHU216HW,2013-04-25 14:31:00,
2013-04-25 10:36:00,56.9,41.3,30.19,NNE,23,1.8,2.9,56,0.00,,,0.00,WUHU216HW,2013-04-25 14:36:00,
2013-04-25 10:41:00,56.9,40.9,30.19,NNW,338,3.6,4.3,55,0.00,,,0.00,WUHU216HW,2013-04-25 14:41:00,
2013-04-25 10:46:00,56.9,40.9,30.19,North,0,1.1,4.3,55,0.00,,,0.00,WUHU216HW,2013-04-25 14:46:00,
2013-04-25 10:51:00,56.9,40.9,30.19,NNW,338,2.0,3.8,55,0.00,,,0.00,WUHU216HW,2013-04-25 14:51:00,
2013-04-25 10:56:00,56.9,41.3,30.19,NNE,23,0.2,3.4,56,0.00,,,0.00,WUHU216HW,2013-04-25 14:56:00,
2013-04-25 11:01:00,57.2,41.7,30.19,NE,45,0.7,3.1,56,0.00,,,0.00,WUHU216HW,2013-04-25 15:01:00,
2013-04-25 11:06:00,57.8,42.7,30.19,NE,45,0.2,1.8,57,0.00,,,0.00,WUHU216HW,2013-04-25 15:06:00,
2013-04-25 11:11:00,58.0,42.3,30.19,NNE,23,1.3,4.0,56,0.00,,,0.00,WUHU216HW,2013-04-25 15:11:00,
2013-04-25 11:16:00,58.3,43.1,30.19,NNW,338,1.1,4.0,57,0.00,,,0.00,WUHU216HW,2013-04-25 15:16:00,
2013-04-25 11:21:00,58.7,43.0,30.18,WNW,293,1.3,2.2,56,0.00,,,0.00,WUHU216HW,2013-04-25 15:21:00,
2013-04-25 11:26:00,59.0,43.3,30.18,North,0,0.7,3.1,56,0.00,,,0.00,WUHU216HW,2013-04-25 15:26:00,
2013-04-25 11:31:00,59.4,43.7,30.18,SSW,203,0.0,3.1,56,0.00,,,0.00,WUHU216HW,2013-04-25 15:31:00,
2013-04-25 11:36:00,59.8,44.0,30.18,NNE,23,1.1,1.8,56,0.00,,,0.00,WUHU216HW,2013-04-25 15:36:00,
2013-04-25 11:41:00,60.3,44.6,30.18,SE,135,0.2,2.0,56,0.00,,,0.00,WUHU216HW,2013-04-25 15:41:00,
2013-04-25 11:46:00,60.7,44.8,30.18,ENE,68,1.8,2.0,56,0.00,,,0.00,WUHU216HW,2013-04-25 15:46:00,
2013-04-25 11:51:00,60.8,45.0,30.18,NW,315,1.3,2.2,56,0.00,,,0.00,WUHU216HW,2013-04-25 15:51:00,
2013-04-25 11:56:00,61.0,44.7,30.17,SE,135,0.2,2.2,55,0.00,,,0.00,WUHU216HW,2013-04-25 15:56:00,
2013-04-25 12:01:00,61.2,44.9,30.17,ENE,68,1.3,2.5,55,0.00,,,0.00,WUHU216HW,2013-04-25 16:01:00,
2013-04-25 12:06:00,61.6,45.7,30.17,ESE,113,1.6,3.4,56,0.00,,,0.00,WUHU216HW,2013-04-25 16:06:00,
2013-04-25 12:11:00,61.6,45.2,30.17,ENE,68,1.1,3.4,55,0.00,,,0.00,WUHU216HW,2013-04-25 16:11:00,
2013-04-25 12:16:00,61.6,45.2,30.17,SE,135,1.1,4.0,55,0.00,,,0.00,WUHU216HW,2013-04-25 16:16:00,
2013-04-25 12:21:00,62.1,45.7,30.17,North,0,0.2,4.0,55,0.00,,,0.00,WUHU216HW,2013-04-25 16:21:00,
2013-04-25 12:26:00,62.1,45.2,30.17,North,0,1.8,4.0,54,0.00,,,0.00,WUHU216HW,2013-04-25 16:26:00,
2013-04-25 12:31:00,62.5,46.5,30.16,East,90,2.9,4.0,56,0.00,,,0.00,WUHU216HW,2013-04-25 16:31:00,
2013-04-25 12:36:00,62.8,46.8,30.17,East,90,1.8,3.6,56,0.00,,,0.00,WUHU216HW,2013-04-25 16:36:00,
2013-04-25 12:41:00,63.2,46.2,30.17,ESE,113,0.0,3.1,54,0.00,,,0.00,WUHU216HW,2013-04-25 16:41:00,
2013-04-25 12:46:00,63.2,46.2,30.17,North,0,2.0,2.5,54,0.00,,,0.00,WUHU216HW,2013-04-25 16:46:00,
2013-04-25 12:51:00,63.4,46.4,30.17,NE,45,0.7,3.4,54,0.00,,,0.00,WUHU216HW,2013-04-25 16:51:00,
2013-04-25 12:56:00,63.7,46.6,30.17,NE,45,1.1,3.4,54,0.00,,,0.00,WUHU216HW,2013-04-25 16:56:00,
2013-04-25 13:01:00,64.1,47.0,30.17,NW,315,1.8,2.5,54,0.00,,,0.00,WUHU216HW,2013-04-25 17:01:00,
2013-04-25 13:06:00,64.4,46.8,30.18,SE,135,1.1,3.4,53,0.00,,,0.00,WUHU216HW,2013-04-25 17:06:00,
2013-04-25 13:11:00,64.4,47.4,30.17,ESE,113,1.1,3.4,54,0.00,,,0.00,WUHU216HW,2013-04-25 17:11:00,
2013-04-25 13:16:00,64.8,47.2,30.17,ENE,68,1.8,2.7,53,0.00,,,0.00,WUHU216HW,2013-04-25 17:16:00,
2013-04-25 13:21:00,65.0,47.3,30.17,WNW,293,1.3,2.7,53,0.00,,,0.00,WUHU216HW,2013-04-25 17:21:00,
2013-04-25 13:26:00,65.3,47.3,30.17,NNW,338,3.1,4.0,52,0.00,,,0.00,WUHU216HW,2013-04-25 17:26:00,
2013-04-25 13:31:00,65.5,47.4,30.17,NE,45,0.7,4.0,52,0.00,,,0.00,WUHU216HW,2013-04-25 17:31:00,
2013-04-25 13:36:00,65.9,47.8,30.17,NNW,338,0.4,3.4,52,0.00,,,0.00,WUHU216HW,2013-04-25 17:36:00,
2013-04-25 13:41:00,66.6,49.0,30.17,NW,315,1.1,3.4,53,0.00,,,0.00,WUHU216HW,2013-04-25 17:41:00,
2013-04-25 13:46:00,67.0,48.3,30.17,NW,315,1.1,3.4,51,0.00,,,0.00,WUHU216HW,2013-04-25 17:46:00,
2013-04-25 13:51:00,67.5,48.8,30.17,WNW,293,0.7,2.5,51,0.00,,,0.00,WUHU216HW,2013-04-25 17:51:00,
2013-04-25 13:56:00,68.0,48.2,30.17,NNE,23,1.1,4.5,49,0.00,,,0.00,WUHU216HW,2013-04-25 17:56:00,
2013-04-25 14:01:00,67.7,47.9,30.17,ESE,113,1.3,4.5,49,0.00,,,0.00,WUHU216HW,2013-04-25 18:01:00,
2013-04-25 14:06:00,68.0,48.8,30.17,ENE,68,1.6,3.8,50,0.00,,,0.00,WUHU216HW,2013-04-25 18:06:00,
2013-04-25 14:11:00,68.4,48.5,30.17,North,0,1.8,3.8,49,0.00,,,0.00,WUHU216HW,2013-04-25 18:11:00,
2013-04-25 14:16:00,68.8,47.6,30.17,WSW,248,1.1,3.4,47,0.00,,,0.00,WUHU216HW,2013-04-25 18:16:00,
2013-04-25 14:21:00,69.3,48.2,30.17,North,0,1.8,3.4,47,0.00,,,0.00,WUHU216HW,2013-04-25 18:21:00,
2013-04-25 14:26:00,69.5,47.7,30.17,North,0,1.3,4.7,46,0.00,,,0.00,WUHU216HW,2013-04-25 18:26:00,
2013-04-25 14:31:00,69.8,48.6,30.17,NNW,338,1.1,4.7,47,0.00,,,0.00,WUHU216HW,2013-04-25 18:31:00,
2013-04-25 14:36:00,70.2,49.0,30.17,West,270,1.8,3.1,47,0.00,,,0.00,WUHU216HW,2013-04-25 18:36:00,
2013-04-25 14:41:00,71.1,49.8,30.17,NW,315,2.0,2.7,47,0.00,,,0.00,WUHU216HW,2013-04-25 18:41:00,
2013-04-25 14:46:00,72.0,50.6,30.17,North,0,1.1,2.2,47,0.00,,,0.00,WUHU216HW,2013-04-25 18:46:00,
2013-04-25 14:51:00,72.4,49.7,30.17,SE,135,1.6,2.5,45,0.00,,,0.00,WUHU216HW,2013-04-25 18:51:00,
2013-04-25 14:56:00,72.5,50.5,30.16,SE,135,0.4,2.5,46,0.00,,,0.00,WUHU216HW,2013-04-25 18:56:00,
2013-04-25 15:01:00,72.5,49.2,30.16,NE,45,0.2,1.8,44,0.00,,,0.00,WUHU216HW,2013-04-25 19:01:00,
2013-04-25 15:06:00,72.4,48.5,30.16,North,0,2.5,2.5,43,0.00,,,0.00,WUHU216HW,2013-04-25 19:06:00,
2013-04-25 15:11:00,71.3,48.2,30.16,West,270,1.1,4.3,44,0.00,,,0.00,WUHU216HW,2013-04-25 19:11:00,
2013-04-25 15:16:00,71.3,48.7,30.16,ENE,68,1.1,4.3,45,0.00,,,0.00,WUHU216HW,2013-04-25 19:16:00,
2013-04-25 15:21:00,71.6,49.1,30.16,NW,315,1.8,3.4,45,0.00,,,0.00,WUHU216HW,2013-04-25 19:21:00,
2013-04-25 15:26:00,72.2,49.5,30.16,South,180,1.6,3.4,45,0.00,,,0.00,WUHU216HW,2013-04-25 19:26:00,
2013-04-25 15:31:00,72.7,50.1,30.16,ESE,113,0.7,2.9,45,0.00,,,0.00,WUHU216HW,2013-04-25 19:31:00,
2013-04-25 15:36:00,72.7,48.9,30.15,NNW,338,1.1,2.9,43,0.00,,,0.00,WUHU216HW,2013-04-25 19:36:00,
2013-04-25 15:41:00,71.8,48.1,30.15,ESE,113,1.6,2.9,43,0.00,,,0.00,WUHU216HW,2013-04-25 19:41:00,
2013-04-25 15:46:00,72.0,48.2,30.15,West,270,1.6,2.5,43,0.00,,,0.00,WUHU216HW,2013-04-25 19:46:00,
2013-04-25 15:51:00,72.4,49.2,30.14,WSW,248,0.7,3.1,44,0.00,,,0.00,WUHU216HW,2013-04-25 19:51:00,
2013-04-25 15:56:00,72.5,49.2,30.14,ESE,113,4.7,4.7,44,0.00,,,0.00,WUHU216HW,2013-04-25 19:56:00,
2013-04-25 16:01:00,72.7,49.4,30.13,West,270,1.1,4.7,44,0.00,,,0.00,WUHU216HW,2013-04-25 20:01:00,
2013-04-25 16:06:00,72.7,49.4,30.13,SE,135,1.1,3.8,44,0.00,,,0.00,WUHU216HW,2013-04-25 20:06:00,
2013-04-25 16:11:00,72.9,49.6,30.13,ESE,113,1.1,2.5,44,0.00,,,0.00,WUHU216HW,2013-04-25 20:11:00,
2013-04-25 16:16:00,73.1,49.8,30.13,ESE,113,1.1,1.8,44,0.00,,,0.00,WUHU216HW,2013-04-25 20:16:00,
2013-04-25 16:21:00,72.9,49.6,30.13,SSW,203,1.1,2.0,44,0.00,,,0.00,WUHU216HW,2013-04-25 20:21:00,
2013-04-25 16:26:00,72.7,49.4,30.13,WSW,248,0.9,2.0,44,0.00,,,0.00,WUHU216HW,2013-04-25 20:26:00,
2013-04-25 16:31:00,72.7,49.4,30.13,ESE,113,2.0,2.0,44,0.00,,,0.00,WUHU216HW,2013-04-25 20:31:00,
2013-04-25 16:36:00,72.5,49.2,30.13,South,180,0.4,2.0,44,0.00,,,0.00,WUHU216HW,2013-04-25 20:36:00,
2013-04-25 16:41:00,72.5,48.1,30.13,ENE,68,0.7,2.0,42,0.00,,,0.00,WUHU216HW,2013-04-25 20:41:00,
2013-04-25 16:46:00,72.4,49.2,30.13,NNW,338,0.4,1.8,44,0.00,,,0.00,WUHU216HW,2013-04-25 20:46:00,
2013-04-25 16:51:00,71.8,48.1,30.13,West,270,0.9,2.5,43,0.00,,,0.00,WUHU216HW,2013-04-25 20:51:00,
2013-04-25 16:56:00,71.3,47.0,30.13,North,0,0.4,2.5,42,0.00,,,0.00,WUHU216HW,2013-04-25 20:56:00,
2013-04-25 17:01:00,71.1,48.0,30.13,ENE,68,1.1,2.2,44,0.00,,,0.00,WUHU216HW,2013-04-25 21:01:00,
2013-04-25 17:06:00,71.5,47.7,30.13,NE,45,1.3,2.2,43,0.00,,,0.00,WUHU216HW,2013-04-25 21:06:00,
2013-04-25 17:11:00,71.6,47.9,30.13,ENE,68,1.1,1.8,43,0.00,,,0.00,WUHU216HW,2013-04-25 21:11:00,
2013-04-25 17:16:00,71.8,48.6,30.13,NE,45,1.1,1.8,44,0.00,,,0.00,WUHU216HW,2013-04-25 21:16:00,
2013-04-25 17:21:00,71.6,47.3,30.13,NNE,23,1.3,1.6,42,0.00,,,0.00,WUHU216HW,2013-04-25 21:21:00,
2013-04-25 17:26:00,71.3,47.5,30.13,NNW,338,1.1,2.0,43,0.00,,,0.00,WUHU216HW,2013-04-25 21:26:00,
2013-04-25 17:31:00,71.3,47.5,30.13,East,90,1.3,2.0,43,0.00,,,0.00,WUHU216HW,2013-04-25 21:31:00,
2013-04-25 17:36:00,71.5,47.7,30.13,ESE,113,1.8,1.8,43,0.00,,,0.00,WUHU216HW,2013-04-25 21:36:00,
2013-04-25 17:41:00,71.6,47.9,30.13,East,90,0.4,2.2,43,0.00,,,0.00,WUHU216HW,2013-04-25 21:41:00,
2013-04-25 17:46:00,71.6,47.3,30.13,ESE,113,1.1,2.2,42,0.00,,,0.00,WUHU216HW,2013-04-25 21:46:00,
2013-04-25 17:51:00,71.5,47.1,30.13,ESE,113,2.0,2.2,42,0.00,,,0.00,WUHU216HW,2013-04-25 21:51:00,
2013-04-25 17:56:00,71.5,47.7,30.13,ESE,113,0.9,2.2,43,0.00,,,0.00,WUHU216HW,2013-04-25 21:56:00,
2013-04-25 18:01:00,71.6,47.9,30.13,WNW,293,0.0,2.0,43,0.00,,,0.00,WUHU216HW,2013-04-25 22:01:00,
2013-04-25 18:06:00,71.5,47.7,30.13,North,0,0.4,2.0,43,0.00,,,0.00,WUHU216HW,2013-04-25 22:06:00,
2013-04-25 18:11:00,71.1,46.8,30.13,ENE,68,1.1,1.6,42,0.00,,,0.00,WUHU216HW,2013-04-25 22:11:00,
2013-04-25 18:16:00,70.9,47.3,30.13,NE,45,0.2,1.6,43,0.00,,,0.00,WUHU216HW,2013-04-25 22:16:00,
2013-04-25 18:21:00,70.9,47.3,30.13,ESE,113,0.9,1.3,43,0.00,,,0.00,WUHU216HW,2013-04-25 22:21:00,
2013-04-25 18:26:00,70.4,46.7,30.13,ESE,113,0.4,1.3,43,0.00,,,0.00,WUHU216HW,2013-04-25 22:26:00,
2013-04-25 18:31:00,70.0,46.5,30.13,ENE,68,0.4,1.1,43,0.00,,,0.00,WUHU216HW,2013-04-25 22:31:00,
2013-04-25 18:36:00,69.8,46.8,30.13,ENE,68,0.0,0.9,44,0.00,,,0.00,WUHU216HW,2013-04-25 22:36:00,
2013-04-25 18:41:00,69.8,46.8,30.14,SE,135,0.0,0.4,44,0.00,,,0.00,WUHU216HW,2013-04-25 22:41:00,
2013-04-25 18:46:00,69.7,46.7,30.13,North,0,0.4,0.4,44,0.00,,,0.00,WUHU216HW,2013-04-25 22:46:00,
2013-04-25 18:51:00,69.3,46.4,30.14,NE,45,0.4,0.7,44,0.00,,,0.00,WUHU216HW,2013-04-25 22:51:00,
2013-04-25 18:56:00,69.1,46.2,30.14,NE,45,0.0,0.7,44,0.00,,,0.00,WUHU216HW,2013-04-25 22:56:00,
2013-04-25 19:01:00,68.8,45.3,30.14,NE,45,0.9,0.9,43,0.00,,,0.00,WUHU216HW,2013-04-25 23:01:00,
2013-04-25 19:06:00,68.8,45.3,30.14,NE,45,0.4,0.9,43,0.00,,,0.00,WUHU216HW,2013-04-25 23:06:00,
2013-04-25 19:11:00,68.4,44.9,30.14,North,0,0.4,1.3,43,0.00,,,0.00,WUHU216HW,2013-04-25 23:11:00,
2013-04-25 19:16:00,68.4,44.9,30.14,NNE,23,0.4,1.8,43,0.00,,,0.00,WUHU216HW,2013-04-25 23:16:00,
2013-04-25 19:21:00,68.0,44.7,30.14,North,0,0.0,1.8,43,0.00,,,0.00,WUHU216HW,2013-04-25 23:21:00,
2013-04-25 19:26:00,67.9,44.5,30.15,North,0,0.0,0.4,43,0.00,,,0.00,WUHU216HW,2013-04-25 23:26:00,
2013-04-25 19:31:00,67.7,44.3,30.15,North,0,0.0,0.4,43,0.00,,,0.00,WUHU216HW,2013-04-25 23:31:00,
2013-04-25 19:36:00,67.5,44.1,30.15,North,0,0.0,0.0,43,0.00,,,0.00,WUHU216HW,2013-04-25 23:36:00,
2013-04-25 19:41:00,67.3,44.0,30.15,NE,45,0.0,0.0,43,0.00,,,0.00,WUHU216HW,2013-04-25 23:41:00,
2013-04-25 19:46:00,67.1,44.4,30.16,East,90,0.2,0.4,44,0.00,,,0.00,WUHU216HW,2013-04-25 23:46:00,
2013-04-25 19:51:00,67.0,44.3,30.16,East,90,0.2,0.4,44,0.00,,,0.00,WUHU216HW,2013-04-25 23:51:00,
2013-04-25 19:56:00,66.8,44.6,30.16,East,90,0.0,0.4,45,0.00,,,0.00,WUHU216HW,2013-04-25 23:56:00,
2013-04-25 20:01:00,66.6,44.6,30.16,East,90,0.2,0.4,45,0.00,,,0.00,WUHU216HW,2013-04-26 00:01:00,
2013-04-25 20:06:00,66.4,44.4,30.16,East,90,0.0,0.4,45,0.00,,,0.00,WUHU216HW,2013-04-26 00:06:00,
2013-04-25 20:11:00,66.2,44.2,30.16,East,90,0.0,0.2,45,0.00,,,0.00,WUHU216HW,2013-04-26 00:11:00,
2013-04-25 20:16:00,66.1,44.0,30.17,East,90,0.0,0.0,45,0.00,,,0.00,WUHU216HW,2013-04-26 00:16:00,
2013-04-25 20:21:00,65.7,44.3,30.17,East,90,0.0,0.0,46,0.00,,,0.00,WUHU216HW,2013-04-26 00:21:00,
2013-04-25 20:26:00,65.2,43.7,30.17,East,90,0.0,0.0,46,0.00,,,0.00,WUHU216HW,2013-04-26 00:26:00,
2013-04-25 20:31:00,65.0,44.2,30.17,East,90,0.0,0.0,47,0.00,,,0.00,WUHU216HW,2013-04-26 00:31:00,
2013-04-25 20:36:00,64.8,44.6,30.17,ENE,68,0.0,0.0,48,0.00,,,0.00,WUHU216HW,2013-04-26 00:36:00,
2013-04-25 20:41:00,64.6,45.0,30.17,ENE,68,0.0,0.0,49,0.00,,,0.00,WUHU216HW,2013-04-26 00:41:00,
2013-04-25 20:46:00,64.4,44.8,30.18,ENE,68,0.0,0.0,49,0.00,,,0.00,WUHU216HW,2013-04-26 00:46:00,
2013-04-25 20:51:00,64.3,45.2,30.18,ENE,68,0.0,0.0,50,0.00,,,0.00,WUHU216HW,2013-04-26 00:51:00,
2013-04-25 20:56:00,63.9,44.9,30.18,NNW,338,0.2,0.4,50,0.00,,,0.00,WUHU216HW,2013-04-26 00:56:00,
2013-04-25 21:01:00,63.5,45.0,30.18,NNW,338,0.0,0.4,51,0.00,,,0.00,WUHU216HW,2013-04-26 01:01:00,
2013-04-25 21:06:00,63.4,44.9,30.19,NNW,338,0.0,0.0,51,0.00,,,0.00,WUHU216HW,2013-04-26 01:06:00,
2013-04-25 21:11:00,63.2,45.2,30.19,NNW,338,0.0,0.0,52,0.00,,,0.00,WUHU216HW,2013-04-26 01:11:00,
2013-04-25 21:16:00,62.8,45.4,30.19,NNW,338,0.0,0.2,53,0.00,,,0.00,WUHU216HW,2013-04-26 01:16:00,
2013-04-25 21:21:00,62.6,45.2,30.19,NW,315,0.4,0.4,53,0.00,,,0.00,WUHU216HW,2013-04-26 01:21:00,
2013-04-25 21:26:00,62.5,45.6,30.19,NW,315,0.0,0.4,54,0.00,,,0.00,WUHU216HW,2013-04-26 01:26:00,
2013-04-25 21:31:00,62.3,45.4,30.20,NW,315,0.0,0.4,54,0.00,,,0.00,WUHU216HW,2013-04-26 01:31:00,
2013-04-25 21:36:00,62.1,45.2,30.20,NW,315,0.0,0.2,54,0.00,,,0.00,WUHU216HW,2013-04-26 01:36:00,
2013-04-25 21:41:00,61.9,45.6,30.20,NW,315,0.0,0.0,55,0.00,,,0.00,WUHU216HW,2013-04-26 01:41:00,
2013-04-25 21:46:00,61.7,45.4,30.21,NW,315,0.0,0.4,55,0.00,,,0.00,WUHU216HW,2013-04-26 01:46:00,
2013-04-25 21:51:00,61.6,45.7,30.21,NW,315,0.0,0.4,56,0.00,,,0.00,WUHU216HW,2013-04-26 01:51:00,
2013-04-25 21:56:00,61.2,45.8,30.21,NW,315,0.0,0.0,57,0.00,,,0.00,WUHU216HW,2013-04-26 01:56:00,
2013-04-25 22:01:00,61.0,45.7,30.21,NW,315,0.0,0.0,57,0.00,,,0.00,WUHU216HW,2013-04-26 02:01:00,
2013-04-25 22:06:00,60.8,45.6,30.21,East,90,0.7,0.7,57,0.00,,,0.00,WUHU216HW,2013-04-26 02:06:00,
2013-04-25 22:11:00,60.3,46.0,30.22,East,90,0.0,2.2,59,0.00,,,0.00,WUHU216HW,2013-04-26 02:11:00,
2013-04-25 22:16:00,59.6,45.3,30.21,NE,45,0.0,2.2,59,0.00,,,0.00,WUHU216HW,2013-04-26 02:16:00,
2013-04-25 22:21:00,59.0,45.2,30.22,NW,315,0.2,0.4,60,0.00,,,0.00,WUHU216HW,2013-04-26 02:21:00,
2013-04-25 22:26:00,59.0,45.6,30.22,NW,315,0.0,0.4,61,0.00,,,0.00,WUHU216HW,2013-04-26 02:26:00,
2013-04-25 22:31:00,59.0,45.2,30.21,NNW,338,0.0,0.2,60,0.00,,,0.00,WUHU216HW,2013-04-26 02:31:00,
2013-04-25 22:36:00,58.9,45.5,30.22,NW,315,0.0,0.4,61,0.00,,,0.00,WUHU216HW,2013-04-26 02:36:00,
2013-04-25 22:41:00,59.0,46.0,30.22,NW,315,0.0,0.4,62,0.00,,,0.00,WUHU216HW,2013-04-26 02:41:00,
2013-04-25 22:46:00,59.0,46.0,30.22,West,270,0.4,0.7,62,0.00,,,0.00,WUHU216HW,2013-04-26 02:46:00,
2013-04-25 22:51:00,59.0,46.0,30.22,West,270,0.0,0.7,62,0.00,,,0.00,WUHU216HW,2013-04-26 02:51:00,
2013-04-25 22:56:00,59.0,46.0,30.22,WNW,293,0.0,0.4,62,0.00,,,0.00,WUHU216HW,2013-04-26 02:56:00,
2013-04-25 23:01:00,59.0,46.5,30.22,NE,45,0.0,0.4,63,0.00,,,0.00,WUHU216HW,2013-04-26 03:01:00,
2013-04-25 23:06:00,58.9,46.3,30.22,North,0,0.0,0.2,63,0.00,,,0.00,WUHU216HW,2013-04-26 03:06:00,
2013-04-25 23:11:00,58.7,46.5,30.22,North,0,0.2,0.4,64,0.00,,,0.00,WUHU216HW,2013-04-26 03:11:00,
2013-04-25 23:16:00,58.3,46.2,30.22,North,0,0.0,0.4,64,0.00,,,0.00,WUHU216HW,2013-04-26 03:16:00,
2013-04-25 23:21:00,58.1,46.4,30.22,North,0,0.0,0.2,65,0.00,,,0.00,WUHU216HW,2013-04-26 03:21:00,
2013-04-25 23:26:00,58.0,46.3,30.22,North,0,0.0,0.0,65,0.00,,,0.00,WUHU216HW,2013-04-26 03:26:00,
2013-04-25 23:31:00,57.6,46.3,30.23,North,0,0.0,0.0,66,0.00,,,0.00,WUHU216HW,2013-04-26 03:31:00,
2013-04-25 23:36:00,57.6,46.7,30.23,North,0,0.0,0.0,67,0.00,,,0.00,WUHU216HW,2013-04-26 03:36:00,
2013-04-25 23:41:00,57.6,47.1,30.22,WNW,293,0.4,0.4,68,0.00,,,0.00,WUHU216HW,2013-04-26 03:41:00,
2013-04-25 23:46:00,57.6,46.7,30.22,West,270,0.0,0.4,67,0.00,,,0.00,WUHU216HW,2013-04-26 03:46:00,
2013-04-25 23:51:00,57.6,46.7,30.23,WNW,293,0.0,0.4,67,0.00,,,0.00,WUHU216HW,2013-04-26 03:51:00,
2013-04-25 23:56:00,57.4,46.9,30.23,WNW,293,0.0,0.0,68,0.00,,,0.00,WUHU216HW,2013-04-26 03:56:00,